Regional Weather Roundup
Issued by NWS

Home | Current Version | Previous Version | Graphics & Text | Print | Product List | Glossary On
Versions: 1 2 3 4 5 6 7 8 9 10 11 12 13 14 15 16 17 18 19 20 21 22 23 24 25 26 27 28 29 30 31 32 33 34 35 36 37 38 39 40 41 42 43 44 45 46 47 48 49 50
000
ASUS43 KLMK 221502
RWRKY
KENTUCKY REGIONAL WEATHER ROUNDUP
NATIONAL WEATHER SERVICE LOUISVILLE KY
1100 AM EDT SUN APR 22 2018

NOTE "FAIR" INDICATES FEW OR NO CLOUDS BELOW 12,000 FEET
WITH NO SIGNIFICANT WEATHER AND/OR OBSTRUCTIONS TO VISIBILITY.

KYZ001>023-026-027-061>063-070>075-221600-
WESTERN AND SOUTH CENTRAL KENTUCKY

CITY           SKY/WX    TMP DP  RH WIND       PRES   REMARKS
PADUCAH        LGT RAIN  53  46  77 E6        30.10F
HENDERSON      FAIR      59  38  45 NE9       30.16F
OWENSBORO      FAIR      62  38  40 E12       30.16F
HOPKINSVILLE   DRIZZLE   57  46  67 CALM      30.13R
BOWLING GREEN  CLOUDY    58  44  60 E6        30.17S
GLASGOW        NOT AVBL
$$

KYZ024-025-028>034-038-045-046-053-221600-
NORTH CENTRAL KENTUCKY

CITY           SKY/WX    TMP DP  RH WIND       PRES   REMARKS
LOUISVILLE/SDF PTSUNNY   61  32  33 E6        30.22F
LOUISVILLE/LOU FAIR      60  34  37 NE9       30.23F
FORT KNOX      FAIR      62  33  34 E7        30.21F
$$

KYZ035>037-039>044-047>052-055>060-089>105-221600-
NORTHEAST KENTUCKY

CITY           SKY/WX    TMP DP  RH WIND       PRES   REMARKS
LEXINGTON      FAIR      61  32  33 E5        30.24F
COVINGTON      PTSUNNY   55  30  38 NE14      30.26F
FRANKFORT      FAIR      60  32  34 SE6       30.23F
$$

KYZ054-064>069-076>088-106>120-221600-
SOUTHEAST KENTUCKY

CITY           SKY/WX    TMP DP  RH WIND       PRES   REMARKS
JACKSON        FAIR      61  31  32 CALM      30.26S
LONDON         FAIR      61  39  44 S3        30.24F
SOMERSET       NOT AVBL
MIDDLESBORO    FAIR      59  43  55 CALM      30.26F
MONTICELLO     FAIR      59  41  51 E5        30.24F
$$




USA.gov is the U.S. government's official web portal to all federal, state and local government web resources and services.